Edinburg, TX

6:55 AM CST on January 22, 2018 (GMT -0600)
Edinburg

Weather History for KEBG - December, 2012

Change the Weather History Date:

Thursday, December 27, 2012

  Actual Average (KMFE) Record (KMFE)
Temperature  
Mean Temperature 53 °F -  
Max Temperature 67 °F 69 °F 94 °F (1968)
Min Temperature 39 °F 47 °F 37 °F (1983)
Degree Days  
Heating Degree Days 12    
Growing Degree Days 3 (Base 50)    
Moisture  
Dew Point 43 °F    
Average Humidity 62    
Maximum Humidity 74    
Minimum Humidity 51    
Precipitation  
Precipitation 0.00 in - - ()
Sea Level Pressure  
Sea Level Pressure 29.91 in    
Wind  
Wind Speed 3 mph (North)    
Max Wind Speed 6 mph    
Max Gust Speed -    
Visibility 7 miles    
Events      
Averages and records for this station are not official NWS values.
T = Trace of Precipitation, MM = Missing Value Source: NWS Daily Summary

Daily Weather History Graph

Daily Weather History Graph

Search for Another Location

Airport or City:

Trip Planner

Search our weather history database for the weather conditions in past years. The results will help you decide how hot, cold, wet, or windy it might be!

Date:

Astronomy

Dec. 27, 2012 Rise Set
Actual Time 7:19 AM CST 5:48 PM CST
Civil Twilight 6:53 AM CST 6:14 PM CST
Nautical Twilight 6:24 AM CST 6:42 PM CST
Astronomical Twilight 5:56 AM CST 7:11 PM CST
Moon 5:29 PM CST (12/27) 6:33 AM CST (12/27)
Length of Visible Light 11h 20m
Length of Day
10h 29m
Full, 100% of the Moon is Illuminated
Dec 27
Full
Dec 28
Full
Jan 4
Last Quarter
Jan 11
New
Jan 18
First Quarter

Hourly Weather History & Observations

Time (CST) Temp. Windchill Dew Point Humidity Pressure Visibility Wind Dir Wind Speed Gust Speed Precip Events Conditions
12:15 AM 41.9 °F - 32.0 °F 68% 30.09 in 7.0 mi Calm Calm - N/A   Clear
12:35 AM 41.0 °F - 31.6 °F 69% 30.09 in 7.0 mi Calm Calm - N/A   Clear
12:55 AM 39.7 °F - 31.8 °F 73% 30.08 in 7.0 mi Calm Calm - N/A   Clear
1:15 AM 40.6 °F - 32.2 °F 72% 30.07 in 7.0 mi Calm Calm - N/A   Scattered Clouds
1:35 AM 43.0 °F 41.3 °F 33.4 °F 69% 30.07 in 7.0 mi NNW 3.5 mph - N/A   Overcast
1:55 AM 43.5 °F 40.9 °F 32.9 °F 66% 30.06 in 7.0 mi NNW 4.6 mph - N/A   Overcast
2:15 AM 44.6 °F - 33.4 °F 65% 30.05 in 7.0 mi Calm Calm - N/A   Overcast
2:35 AM 45.9 °F 44.6 °F 34.7 °F 65% 30.06 in 7.0 mi NNW 3.5 mph - N/A   Overcast
2:55 AM 46.0 °F 43.9 °F 35.1 °F 66% 30.05 in 7.0 mi NNW 4.6 mph - N/A   Overcast
3:15 AM 46.4 °F 45.2 °F 35.6 °F 66% 30.04 in 7.0 mi North 3.5 mph - N/A   Overcast
3:35 AM 47.1 °F - 36.1 °F 66% 30.03 in 7.0 mi North 4.6 mph - N/A   Overcast
3:55 AM 47.1 °F - 36.1 °F 66% 30.02 in 7.0 mi North 4.6 mph - N/A   Overcast
4:35 AM 47.5 °F - 36.5 °F 66% 30.00 in 7.0 mi North 4.6 mph - N/A   Overcast
4:55 AM 47.5 °F - 36.3 °F 65% 29.99 in 7.0 mi North 3.5 mph - N/A   Overcast
5:15 AM 48.0 °F - 36.5 °F 64% 29.99 in 7.0 mi NNW 3.5 mph - N/A   Overcast
5:55 AM 48.4 °F - 36.9 °F 64% 29.98 in 7.0 mi North 4.6 mph - N/A   Overcast
6:15 AM 48.7 °F - 37.4 °F 65% 29.99 in 7.0 mi North 4.6 mph - N/A   Overcast
6:35 AM 49.1 °F - 37.6 °F 64% 29.98 in 7.0 mi North 5.8 mph - N/A   Overcast
6:55 AM 49.1 °F - 37.4 °F 64% 29.98 in 7.0 mi North 3.5 mph - N/A   Overcast
7:35 AM 49.6 °F - 37.6 °F 63% 29.99 in 7.0 mi NNW 3.5 mph - N/A   Overcast
7:55 AM 50.0 °F - 37.8 °F 63% 29.98 in 7.0 mi Calm Calm - N/A   Overcast
8:15 AM 50.0 °F - 38.1 °F 64% 29.98 in 7.0 mi Calm Calm - N/A   Overcast
8:55 AM 51.3 °F - 39.2 °F 63% 29.98 in 5.0 mi North 4.6 mph - N/A   Haze
9:15 AM 52.0 °F - 39.7 °F 63% 29.99 in 5.0 mi NNW 4.6 mph - N/A   Haze
9:35 AM 52.7 °F - 39.7 °F 61% 30.00 in 7.0 mi NNW 5.8 mph - N/A   Overcast
9:55 AM 53.1 °F - 40.1 °F 61% 30.00 in 7.0 mi NNW 4.6 mph - N/A   Overcast
10:15 AM 54.0 °F - 40.5 °F 60% 29.99 in 7.0 mi NNW 4.6 mph - N/A   Overcast
10:35 AM 54.9 °F - 41.0 °F 60% 29.98 in 7.0 mi NNE 5.8 mph - N/A   Overcast
10:55 AM 55.8 °F - 41.2 °F 58% 29.97 in 7.0 mi North 5.8 mph - N/A   Overcast
11:15 AM 57.2 °F - 41.5 °F 56% 29.97 in 7.0 mi North 5.8 mph - N/A   Overcast
11:35 AM 57.6 °F - 41.7 °F 56% 29.95 in 7.0 mi North 4.6 mph - N/A   Overcast
11:55 AM 58.5 °F - 42.8 °F 56% 29.94 in 5.0 mi NNE 4.6 mph - N/A   Haze
12:15 PM 59.0 °F - 42.6 °F 55% 29.94 in 7.0 mi North 4.6 mph - N/A   Overcast
12:35 PM 59.2 °F - 42.8 °F 55% 29.92 in 7.0 mi NNE 3.5 mph - N/A   Overcast
12:55 PM 60.4 °F - 43.7 °F 54% 29.90 in 7.0 mi NNE 4.6 mph - N/A   Overcast
1:15 PM 60.8 °F - 43.7 °F 53% 29.88 in 7.0 mi North 4.6 mph - N/A   Overcast
1:35 PM 62.1 °F - 44.2 °F 52% 29.86 in 7.0 mi NNE 3.5 mph - N/A   Overcast
1:55 PM 63.3 °F - 45.0 °F 51% 29.85 in 5.0 mi Calm Calm - N/A   Haze
2:15 PM 63.7 °F - 45.3 °F 51% 29.84 in 7.0 mi Calm Calm - N/A   Overcast
2:35 PM 64.8 °F - 47.5 °F 53% 29.83 in 7.0 mi SSW 3.5 mph - N/A   Overcast
2:55 PM 65.5 °F - 47.1 °F 51% 29.82 in 7.0 mi Calm Calm - N/A   Mostly Cloudy
3:15 PM 65.7 °F - 48.2 °F 53% 29.82 in 7.0 mi Calm Calm - N/A   Mostly Cloudy
3:35 PM 66.0 °F - 49.8 °F 56% 29.81 in 5.0 mi SSE 3.5 mph - N/A   Haze
3:55 PM 66.2 °F - 50.2 °F 56% 29.82 in 5.0 mi Calm Calm - N/A   Haze
4:15 PM 66.4 °F - 50.2 °F 56% 29.80 in 5.0 mi SE 3.5 mph - N/A   Haze
4:35 PM 67.1 °F - 50.0 °F 54% 29.80 in 7.0 mi SSE 3.5 mph - N/A   Mostly Cloudy
4:55 PM 66.2 °F - 50.0 °F 56% 29.80 in 7.0 mi East 4.6 mph - N/A   Mostly Cloudy
5:15 PM 66.2 °F - 50.0 °F 56% 29.80 in 7.0 mi Calm Calm - N/A   Mostly Cloudy
5:35 PM 65.8 °F - 50.2 °F 57% 29.80 in 7.0 mi Calm Calm - N/A   Scattered Clouds
5:55 PM 65.3 °F - 50.2 °F 58% 29.79 in 7.0 mi Calm Calm - N/A   Scattered Clouds
6:15 PM 64.8 °F - 50.4 °F 60% 29.80 in 7.0 mi Calm Calm - N/A   Clear
6:35 PM 63.5 °F - 49.8 °F 61% 29.80 in 7.0 mi Calm Calm - N/A   Scattered Clouds
6:55 PM 63.1 °F - 50.0 °F 62% 29.80 in 7.0 mi NNW 3.5 mph - N/A   Scattered Clouds
7:15 PM 62.6 °F - 50.0 °F 63% 29.81 in 7.0 mi Calm Calm - N/A   Clear
7:35 PM 62.2 °F - 49.6 °F 63% 29.82 in 7.0 mi Calm Calm - N/A   Clear
7:55 PM 61.3 °F - 50.0 °F 66% 29.82 in 5.0 mi NNE 4.6 mph - N/A   Haze
8:15 PM 61.3 °F - 49.1 °F 64% 29.83 in 7.0 mi North 4.6 mph - N/A   Clear
8:35 PM 61.3 °F - 48.6 °F 63% 29.82 in 7.0 mi NNE 3.5 mph - N/A   Clear
8:55 PM 61.0 °F - 48.6 °F 64% 29.83 in 7.0 mi North 3.5 mph - N/A   Mostly Cloudy
9:15 PM 61.7 °F - 48.4 °F 62% 29.83 in 7.0 mi NNE 4.6 mph - N/A   Overcast
9:35 PM 60.8 °F - 48.2 °F 63% 29.82 in 7.0 mi Calm Calm - N/A   Scattered Clouds
9:55 PM 59.7 °F - 48.2 °F 66% 29.82 in 7.0 mi NNE 5.8 mph - N/A   Scattered Clouds
10:15 PM 59.5 °F - 48.2 °F 66% 29.82 in 7.0 mi Calm Calm - N/A   Scattered Clouds
10:35 PM 59.0 °F - 47.8 °F 66% 29.82 in 7.0 mi North 4.6 mph - N/A   Mostly Cloudy
10:55 PM 57.7 °F - 48.0 °F 70% 29.82 in 7.0 mi North 5.8 mph - N/A   Scattered Clouds
11:15 PM 57.6 °F - 48.2 °F 71% 29.82 in 7.0 mi North 4.6 mph - N/A   Clear
11:35 PM 57.2 °F - 48.4 °F 72% 29.82 in 7.0 mi Calm Calm - N/A   Clear
11:55 PM 56.5 °F - 48.2 °F 74% 29.81 in 7.0 mi North 4.6 mph - N/A   Clear